Location: Northcutt
(34.7304°N, 84.4305°W)
Time: 13:46:49
(UTC+00:00)

Vanguard 3 - Visible Passes

Search period start: 03 October 2022 00:00
Search period end: 13 October 2022 00:00
Orbit: 508 x 3257 km, 33.3° (Epoch: 02 October)

Date Brightness Start Highest point End Pass type
(mag) Time Alt. Az. Time Alt. Az. Time Alt. Az.
07 Oct 9.0 10:47:34 10° S 10:49:08 12° SSE 10:50:39 10° SE visible
09 Oct 8.7 10:28:53 10° SSW 10:31:41 17° SSE 10:34:10 10° ESE visible
11 Oct 8.4 10:11:27 14° SSW 10:14:16 22° SSE 10:17:22 10° ESE visible
12 Oct 9.3 09:01:10 14° SE 09:01:10 14° SE 09:02:27 10° ESE visible
12 Oct 7.2 11:06:57 10° WSW 11:11:10 44° SSE 11:14:41 10° E visible
